When you browse on this site, cookies collect data to enhance your experience and personalize the content and advertising you see.
Visit our Privacy Policy to learn more. By continuing to use the site, you agree to this use of cookies and data.

Hourly Weather Tirana

Today, 11 July, Saturday

Time Temperature Precipitation Wind Pressure Humidity
00:00 +24°C° 0 mm 1 mps 753 mmHg 60%
01:00 +24°C° 0 mm 1 mps 753 mmHg 61%
02:00 +24°C° 0 mm 1 mps 753 mmHg 62%
03:00 +24°C° 0 mm 1 mps 753 mmHg 62%
04:00 +23°C° 0 mm 1 mps 753 mmHg 63%
05:00 +25°C° 0 mm 1 mps 753 mmHg 58%
06:00 +27°C° 0 mm 1 mps 753 mmHg 53%
07:00 +29°C° 0 mm 1 mps 753 mmHg 48%
08:00 +31°C° 0 mm 1 mps 753 mmHg 44%
09:00 +32°C° 0 mm 2 mps 753 mmHg 40%
10:00 +35°C° 0 mm 2 mps 753 mmHg 37%
11:00 +35°C° 0 mm 3 mps 752 mmHg 35%
12:00 +35°C° 0 mm 3 mps 752 mmHg 34%
13:00 +36°C° 0 mm 4 mps 752 mmHg 33%
14:00 +35°C° 0 mm 4 mps 752 mmHg 34%
15:00 +35°C° 0 mm 4 mps 752 mmHg 34%
16:00 +34°C° 0 mm 4 mps 751 mmHg 34%
17:00 +31°C° 0 mm 3 mps 751 mmHg 40%
18:00 +29°C° 0 mm 2 mps 751 mmHg 45%
19:00 +27°C° 0 mm 1 mps 751 mmHg 51%
20:00 +27°C° 0 mm 1 mps 752 mmHg 53%
21:00 +26°C° 0 mm 1 mps 752 mmHg 55%
22:00 +23°C° 0 mm 0 mps 752 mmHg 57%
23:00 +24°C° 0 mm 1 mps 752 mmHg 58%

Tomorrow, 12 July, Sunday

Time Temperature Precipitation Wind Pressure Humidity
00:00 +24°C° 0 mm 1 mps 752 mmHg 60%
01:00 +23°C° 0 mm 1 mps 751 mmHg 61%
02:00 +23°C° 0 mm 1 mps 751 mmHg 61%
03:00 +23°C° 0 mm 1 mps 751 mmHg 61%
04:00 +23°C° 0 mm 2 mps 751 mmHg 61%
05:00 +25°C° 0 mm 1 mps 752 mmHg 56%
06:00 +27°C° 0 mm 1 mps 752 mmHg 51%
07:00 +27°C° 0 mm 0 mps 752 mmHg 45%
08:00 +31°C° 0 mm 1 mps 752 mmHg 42%
09:00 +32°C° 0 mm 2 mps 752 mmHg 38%
10:00 +35°C° 0 mm 3 mps 752 mmHg 34%
11:00 +36°C° 0 mm 4 mps 752 mmHg 34%
12:00 +36°C° 0 mm 5 mps 752 mmHg 34%
13:00 +36°C° 0 mm 7 mps 752 mmHg 35%
14:00 +36°C° 0 mm 7 mps 752 mmHg 38%
15:00 +35°C° 0 mm 6 mps 752 mmHg 41%
16:00 +34°C° 0 mm 6 mps 752 mmHg 43%
17:00 +33°C° 0 mm 6 mps 752 mmHg 49%
18:00 +30°C° 0 mm 6 mps 752 mmHg 54%
19:00 +28°C° 0 mm 5 mps 753 mmHg 59%
20:00 +27°C° 0 mm 5 mps 753 mmHg 63%
21:00 +26°C° 0 mm 4 mps 753 mmHg 68%
22:00 +25°C° 0 mm 4 mps 753 mmHg 73%
23:00 +23°C° 0 mm 4 mps 753 mmHg 74%

Day after tomorrow, 13 July, Monday

Time Temperature Precipitation Wind Pressure Humidity
00:00 +24°C° 0 mm 3 mps 753 mmHg 74%
01:00 +22°C° 0 mm 3 mps 753 mmHg 75%
02:00 +22°C° 0 mm 4 mps 753 mmHg 75%
03:00 +21°C° 0 mm 4 mps 753 mmHg 75%
04:00 +21°C° 0 mm 4 mps 752 mmHg 75%
05:00 +23°C° 0 mm 5 mps 752 mmHg 68%
06:00 +25°C° 0 mm 5 mps 753 mmHg 62%
07:00 +27°C° 0 mm 5 mps 753 mmHg 55%
08:00 +28°C° 0 mm 5 mps 753 mmHg 50%
09:00 +30°C° 0 mm 5 mps 753 mmHg 45%
10:00 +33°C° 0 mm 5 mps 753 mmHg 41%
11:00 +34°C° 0 mm 6 mps 753 mmHg 38%
12:00 +34°C° 0 mm 7 mps 752 mmHg 36%
13:00 +35°C° 0 mm 7 mps 752 mmHg 34%
14:00 +35°C° 0 mm 8 mps 752 mmHg 34%
15:00 +34°C° 0 mm 8 mps 751 mmHg 34%
16:00 +34°C° 0 mm 8 mps 751 mmHg 34%
17:00 +32°C° 0 mm 8 mps 751 mmHg 39%
18:00 +29°C° 0 mm 8 mps 751 mmHg 43%
19:00 +27°C° 0 mm 7 mps 751 mmHg 48%
20:00 +26°C° 0 mm 6 mps 752 mmHg 50%
21:00 +25°C° 0 mm 5 mps 752 mmHg 52%
22:00 +22°C° 0 mm 4 mps 752 mmHg 54%
23:00 +22°C° 0 mm 4 mps 752 mmHg 52%

14 July, Tuesday

Time Temperature Precipitation Wind Pressure Humidity
00:00 +21°C° 0 mm 5 mps 752 mmHg 51%
01:00 +20°C° 0 mm 5 mps 752 mmHg 50%
02:00 +20°C° 0 mm 5 mps 752 mmHg 50%
03:00 +20°C° 0 mm 5 mps 752 mmHg 50%
04:00 +19°C° 0 mm 5 mps 751 mmHg 50%
05:00 +21°C° 0 mm 4 mps 752 mmHg 46%
06:00 +23°C° 0 mm 4 mps 752 mmHg 43%
07:00 +25°C° 0 mm 4 mps 752 mmHg 39%
08:00 +27°C° 0 mm 3 mps 752 mmHg 36%
09:00 +29°C° 0 mm 3 mps 752 mmHg 33%
10:00 +31°C° 0 mm 3 mps 752 mmHg 30%
11:00 +33°C° 0 mm 4 mps 752 mmHg 30%
12:00 +34°C° 0 mm 4 mps 752 mmHg 30%
13:00 +34°C° 0 mm 5 mps 752 mmHg 29%
14:00 +34°C° 0 mm 5 mps 752 mmHg 31%
15:00 +33°C° 0 mm 5 mps 752 mmHg 33%
16:00 +32°C° 0 mm 6 mps 752 mmHg 35%
17:00 +29°C° 0 mm 5 mps 752 mmHg 43%
18:00 +27°C° 0 mm 4 mps 752 mmHg 50%
19:00 +25°C° 0 mm 3 mps 752 mmHg 58%
20:00 +24°C° 0 mm 3 mps 752 mmHg 61%
21:00 +23°C° 0 mm 2 mps 752 mmHg 65%
22:00 +22°C° 0 mm 1 mps 753 mmHg 68%
23:00 +22°C° 0 mm 1 mps 753 mmHg 68%

15 July, Wednesday

Time Temperature Precipitation Wind Pressure Humidity
00:00 +22°C° 0 mm 1 mps 753 mmHg 68%
01:00 +21°C° 0 mm 1 mps 753 mmHg 67%
02:00 +21°C° 0 mm 1 mps 753 mmHg 68%
03:00 +21°C° 0 mm 1 mps 753 mmHg 68%
04:00 +21°C° 0 mm 1 mps 753 mmHg 69%
05:00 +23°C° 0 mm 1 mps 753 mmHg 63%
06:00 +25°C° 0 mm 1 mps 753 mmHg 57%
07:00 +27°C° 0 mm 1 mps 754 mmHg 51%
08:00 +28°C° 0 mm 1 mps 754 mmHg 47%
09:00 +30°C° 0 mm 2 mps 754 mmHg 42%
10:00 +32°C° 0 mm 2 mps 754 mmHg 38%
11:00 +33°C° 0 mm 3 mps 754 mmHg 35%
12:00 +33°C° 0 mm 4 mps 753 mmHg 33%
13:00 +34°C° 0 mm 5 mps 753 mmHg 30%
14:00 +33°C° 0 mm 5 mps 753 mmHg 31%
15:00 +33°C° 0 mm 4 mps 753 mmHg 31%
16:00 +32°C° 0 mm 4 mps 753 mmHg 31%
17:00 +29°C° 0 mm 3 mps 753 mmHg 40%
18:00 +27°C° 0 mm 2 mps 753 mmHg 48%
19:00 +24°C° 0 mm 2 mps 753 mmHg 57%
20:00 +23°C° 0 mm 1 mps 753 mmHg 59%
21:00 +22°C° 0 mm 1 mps 753 mmHg 62%
22:00 +20°C° 0 mm 0 mps 754 mmHg 64%
23:00 +21°C° 0 mm 1 mps 754 mmHg 65%

16 July, Thursday

Time Temperature Precipitation Wind Pressure Humidity
00:00 +21°C° 0 mm 1 mps 754 mmHg 65%
01:00 +20°C° 0 mm 1 mps 754 mmHg 65%
02:00 +20°C° 0 mm 1 mps 753 mmHg 62%
03:00 +20°C° 0 mm 1 mps 753 mmHg 59%
04:00 +20°C° 0 mm 1 mps 753 mmHg 57%
05:00 +22°C° 0 mm 1 mps 753 mmHg 51%
06:00 +24°C° 0 mm 1 mps 753 mmHg 45%
07:00 +26°C° 0 mm 1 mps 753 mmHg 39%
08:00 +28°C° 0 mm 1 mps 753 mmHg 34%
09:00 +30°C° 0 mm 2 mps 753 mmHg 29%
10:00 +32°C° 0 mm 2 mps 753 mmHg 24%
11:00 +33°C° 0 mm 3 mps 753 mmHg 26%
12:00 +34°C° 0 mm 4 mps 753 mmHg 28%
13:00 +34°C° 0 mm 5 mps 752 mmHg 30%
14:00 +33°C° 0 mm 5 mps 752 mmHg 32%
15:00 +33°C° 0 mm 5 mps 752 mmHg 35%
16:00 +32°C° 0 mm 5 mps 752 mmHg 37%
17:00 +29°C° 0 mm 4 mps 752 mmHg 45%
18:00 +27°C° 0 mm 3 mps 752 mmHg 54%
19:00 +25°C° 0 mm 3 mps 752 mmHg 62%
20:00 +24°C° 0 mm 2 mps 752 mmHg 65%
21:00 +24°C° 0 mm 2 mps 752 mmHg 68%
22:00 +23°C° 0 mm 1 mps 752 mmHg 70%
23:00 +22°C° 0 mm 1 mps 752 mmHg 70%
Show more